Погода в Амдерме

Погода в Амдерме : погода сейчас, прогноз погоды и архив. Всё, что Вы хотите узнать о погоде в Амдерме!

Хотите узнать прогноз погоды в Амдерме? Тогда Вам сюда: Погода в Амдерме

Поиск расширенной информации на нашем сайте:

Другие новости

Новости СМИ2

Главная страница сайта

Новости сайта

02.10.2013

Напоминаем, что на нашем новом сайте вы можете получить высокодетализированные прогнозы погоды по пунктам России, СНГ и мира (включающие важные для авиации метеовеличины, такие как направление и скорость ветра, видимость, явления погоды, количество и форма облачности, нижняя и верхняя граница облачности), а также ознакомиться с разнообразными материалами по авиационной метеорологии и подборкой полезных ссылок на эту тему.

Сайт Метеоцентр.Азия посвящён разработке технологий оптимизации авиаметеорологического обслуживания, включая проектирование и перспективное создание нескольких автоматизированных авиаметеорологических систем:
- система выпуска высокодетальных прогностических карт явлений погоды для нижнего воздушного пространства по России и ближнему зарубежью;
- система верификации прогнозов TAF (выпускаемых синоптиками официальных АМСГ РФ и ближнего зарубежья) и AUTOTAF (выпускаемых сайтом Метеоцентр.Азия) - выявление ошибок, онлайн-сопоставление с фактической погодой METAR, автоматическое внесение коррективов в прогнозы при резком отклонении фактической погоды от прогноза, подсчёт оправдываемости прогнозов по элементам и в целом;
- система обработки, анализа и отображения авиаметеорологической информации для применения провайдерами метеорологической информации.


Погода в Амдерме - сегодня

Время (UTC), дата Ветер
(°,м/с) 
Видим.   Явления Облачность Т
(°С)
Тd
(°С)
f(%) Тe
(°С)
Pmin
(гПа)
dP
(гПа)
Po
(мм)
O2
(г/м3)
Тmin Tmax R s Состояние
почвы
21 27.03.17 200 (Ю) 7{11}  10 км    6/6 600 м 
[Sc]
-7 -8.1 92 -12  980.4  -0.3  731  303           
00 28.03.17 190 (Ю) 8{11}  10 км    8/8 600 м 
[Sc]
-9.3 -10.8 89 -16  980.1  -0.3  730  306           
03 28.03.17 190 (Ю) 10 км    9/3 300 м средняя, верхняя 
[Sc|Ac lent|Cc]
-8.9 -9.8 93 -15  979.9  -0.2  730  305  -10.2    0.0  23  неравномерный
сухой снег
100% 
06 28.03.17 210 (ЮЗ) 8-11{11}  4000 м  слаб. ливневой снег  9/4 600 м кучево-дожд., средняя 
[Cb cap|Ac trans]
-5.6 -6.4 94 -11  979.8  730  301           
09 28.03.17 210 (ЮЗ) 7{11}  10 км  {ливн. осадки}  4/3 300 м средняя, верхняя 
[Sc|Ac lent|Cc]
-5.1 -6.4 91 -10  980.9  731  301           
12 28.03.17 200 (Ю) 9-10{11}  10 км  позёмок{ливн. осадки}  9/3 600 м средняя 
[Sc|Ac trans]
-4 -4.9 93 -9  981.9  732  300           
15 28.03.17 210 (ЮЗ) 7{10}  4000 м  слаб. ливневой снег  9/6 600 м кучево-дожд., средняя 
[Cb cap|Ac trans]
-4 -4.6 96 -9  982.2  0.4  732  300    -3.6  0.0     
18 28.03.17 190 (Ю) 10 км  {ливн. осадки}  10/10 600 м 
[Sc]
-5.3 -6.1 94 -9  982.4  0.1  732  301           
21 28.03.17 140 (ЮВ) 2000 м  слаб. ливневой снег{туман} [диам. гололёда 1 мм]  10/10 300 м 
[Sc]
-4.2 -4.5 98 -5  982.1  -0.2  732  300           
00 29.03.17 210 (ЮЗ) 4000 м  слаб. ливневой снег{туман} [диам. гололёда 1 мм]  10/10 300 м кучево-дожд. 
[Cb cap]
-3.8 -4.1 98 -5  981.4  -0.7  731  299           
03 29.03.17 160 (Ю) 10 км  {ливн. осадки} [диам. гололёда 1 мм]  9/8 300 м средняя 
[Sc|Ac trans]
-5.6 -6.3 95 -9  981  -0.4  731  301  -5.7    0.2  22  неравномерный
сухой снег
100% 
06 29.03.17 200 (Ю) 2000 м  слаб. ливневой снег [диам. гололёда 1 мм]  10/10 300 м кучево-дожд. 
[Cb cap]
-4.6 -5.2 96 -7  981.2  0.2  731  300           
09 29.03.17 220 (ЮЗ) 7-10{11}  4000 м  слаб. ливневой снег  10/8 600 м кучево-дожд., средняя 
[Cb cap|Ac und]
-4 -4.7 95 -9  982.5  1.9  732  300           
12 29.03.17 220 (ЮЗ) 7-10{12}  10 км  позёмок{ливн. осадки}  9/9 600 м 
[Sc]
-6.3 -7.4 92 -11  984.1  1.4  733  303           
15 29.03.17 210 (ЮЗ) 7{12}  10 км  позёмок  9/6 600 м средняя 
[Sc|Ac trans]
-7.4 -8.4 93 -13  984.6  0.5  734  305    -3.9  0.3     
18 29.03.17 190 (Ю) 5{10}  10 км    4/3 600 м средняя 
[Sc|Ac trans]
-12.2 -13.3 92 -17  985.3  0.6  734  311           
21 29.03.17 220 (ЮЗ) 4000 м  слаб. ливневой снег  9/5 600 м кучево-дожд., средняя 
[Cb cap|Ac trans]
-8.2 -8.9 95 -13  985.4  0.2  734  306           
00 30.03.17 220 (ЮЗ) 10 км  {ливн. осадки}  10/10 600 м 
[Sc]
-7.5 -8.4 93 -12  986.1  0.7  735  305           
03 30.03.17 220 (ЮЗ) 8-11{11}  2000 м  позёмок  9/8 600 м средняя 
[Sc|Ac trans]
-8.4 -9.1 95 -14  986.6  0.4  735  306  -12.5    0.0  23  неравномерный
сухой снег
100% 
06 30.03.17 190 (Ю) 9-10{12}  10 км  позёмок  9/0 средняя, верхняя 
[Ac trans|Ci fib]
-11.5 -12.5 92 -19  987.4  0.7  736  311           
09 30.03.17 200 (Ю) 9-11{13}  10 км  позёмок  9/0 средняя, верхняя 
[Ac trans|Cc]
-9.4 -10.9 89 -16  988.1  0.8  736  308           
12 30.03.17 190 (Ю) 9-11{12}  10 км  позёмок  8/0 средняя, верхняя 
[Ac trans|Ci fib]
-8.9 -10.5 88 -15  988.8  0.7  737  308           
15 30.03.17 190 (Ю) 9-10{11}  10 км    9/0 средняя, верхняя 
[Ac trans|Ci fib]
-11.9 -13.1 91 -19  988.8  -0.1  737  312    -8.4       
18 30.03.17 180 (Ю) 3{11}  10 км    ясно 
-13.4 -14.6 91 -17  989.4  0.6  737  314           
21 30.03.17 190 (Ю) 4000 м  дымка  10/10 300 м 
[St]
-11.6 -12.5 93 -17  988.5  -0.8  737  311           
Время (UTC), дата Ветер
(°,м/с) 
Видим.   Явления Облачность Т
(°С)
Тd
(°С)
f(%) Тe
(°С)
Pmin
(гПа)
dP
(гПа)
Po
(мм)
O2
(г/м3)
Тmin Tmax R s Состояние
почвы

Для получения пояснительной информации подведите курсор к названию столбца.

ПОГОДА в Амдерме - архив

Всё, что Вы хотите узнать о погоде в Амдерме - удобно и подробно!

Выберите нужную дату (начиная с 1 января 2015* года) и нажмите кнопку "Найти".
Будут отображены архивные сводки погоды по пункту Амдерма, начиная с указанной даты.


Отображать данные в формате CSV (для использования в таблицах Excel)


Внимание! Наш архив погоды предназначен исключительно для личного некоммерческого использования в познавательных целях. Если Вам необходимы официальные справки о состоянии погоды (для производственных, юридических, коммерческих и т.п. целей), обращайтесь в органы Росгидромета.

*Примечание: данная дата относится к архиву по метеостанциям СССР (Россия, СНГ, Балтия).
Архив по метеостанциям Зарубежной Европы и Азии (кроме Китая) хранится 10 дней, по другим регионам земного шара (Китай, Африка, Америка, Австралия, Океания) - 1 день.

Амдерма - район местоположения метеостанции


Название, широта, долгота, высота метеостанции:
Амдерма 69.8°ш. 61.7°д. 49 м над ур. моря [Российская Федерация]

Дополнительная информация

В oтличие oт бoльшинства пoгoдных сайтoв мы публикуем пoдрoбную метеoинфoрмацию в детальнoм прoфессиoнальнoм фoрмате.

Характеристики температуры и влажнoсти вoздуха измеряются на высoте 2 м в тени вдали oт зданий и деревьев.
Скoрoсть ветра измеряется на высoте 10 м (на урoвне рoста челoвека скoрoсть ветра ниже в 1.5-2 раза). Если метеoстанция нахoдится в гoрoде или в лесу, тo скoрoсть ветра занижена на 2-4 м/с пo сравнению с oткрытым местoм. Скoрoсть ветра над акватoриями крупных рек и oзёр, а также на вершинах хoлмoв на 2-5 м/с выше, чем в oбычных услoвиях.
Атмoсфернoе давление в разных тoчках местнoсти мoжет значительнo oтличаться oт давления на метеoстанции, в зависимoсти oт услoвий рельефа (при пoдъёме на 10 м давление пoнижается примернo на 1 мм рт.ст.).